DW2070 Weather Reports


Display with metric or nautical units.
time (UTC)temp
F
wind
direction
speed
MPH
gust
MPH
rain 1hr
in
rain 24hr
in
rain mn
in
humidity
%
barometer
mb
20260506090003 52 80 2.0 5.0 0.00 0.00 0.00 85 1017.9
20260506085003 53 80 2.0 5.0 0.00 0.00 0.00 85 1017.9
20260506084003 53 76 3.0 5.0 0.00 0.00 0.00 85 1017.9
20260506083003 53 62 3.0 6.0 0.00 0.00 0.00 86 1018.1
20260506082004 53 78 3.0 5.0 0.00 0.00 0.00 85 1018.1
20260506081005 53 90 3.0 5.0 0.00 0.00 0.00 85 1018.1
20260506073025 54 109 2.0 4.0 0.00 0.00 0.00 85 1018.1
20260506072025 54 109 2.0 4.0 0.00 0.00 0.00 85 1018.1
20260506071004 54 110 2.0 4.0 0.00 0.00 0.00 84 1018.0
20260506062025 55 117 2.0 6.0 0.00 0.00 0.00 83 1017.4
20260506061004 56 117 1.0 3.0 0.00 0.00 0.00 83 1017.3
20260506051004 57 0 0.0 0.0 0.00 0.00 0.00 81 1017.0
20260506045004 57 0 0.0 0.0 0.00 0.00 0.00 81 1016.7
20260506044004 57 0 0.0 0.0 0.00 0.00 0.00 81 1016.7
20260506043004 58 209 1.0 3.0 0.00 0.00 0.00 81 1016.6
20260506042004 58 209 1.0 3.0 0.00 0.00 0.00 80 1016.5
20260506041004 58 210 1.0 4.0 0.00 0.00 0.00 80 1016.2
20260506040004 58 210 2.0 5.0 0.00 0.00 0.00 80 1016.2
20260506035004 58 212 2.0 4.0 0.00 0.00 0.00 79 1016.0
20260506034025 58 220 3.0 6.0 0.00 0.00 0.00 79 1015.8
20260506033025 59 192 2.0 6.0 0.00 0.00 0.00 78 1015.7
20260506032004 59 225 3.0 7.0 0.00 0.00 0.00 78 1015.5
20260506031004 59 245 3.0 6.0 0.00 0.00 0.00 76 1015.4
20260506030025 60 233 3.0 7.0 0.00 0.00 0.00 76 1015.2
20260506025004 60 237 3.0 8.0 0.00 0.00 0.00 74 1015.1
20260506024004 61 194 3.0 9.0 0.00 0.00 0.00 73 1014.9
20260506023004 61 206 4.0 7.0 0.00 0.00 0.00 72 1014.8
20260506022004 62 202 4.0 8.0 0.00 0.00 0.00 71 1014.7
20260506021004 62 215 3.0 10.0 0.00 0.00 0.00 70 1014.6
20260506015025 63 237 4.0 9.0 0.00 0.00 0.00 69 1014.6
20260506014025 63 240 3.0 8.0 0.00 0.00 0.00 68 1014.5
20260506012004 64 222 4.0 11.0 0.00 0.00 0.00 66 1014.6
20260506011004 64 233 4.0 10.0 0.00 0.00 0.00 67 1014.6
20260506010004 64 225 5.0 12.0 0.00 0.00 0.00 65 1014.6
20260506005004 64 237 5.0 14.0 0.00 0.00 0.00 66 1014.6
20260506003004 63 244 6.0 12.0 0.00 0.00 0.00 70 1014.4
20260506002004 64 233 6.0 11.0 0.00 0.00 0.00 68 1014.4
20260506001004 64 249 5.0 12.0 0.00 0.00 0.00 67 1014.5
20260506000004 65 257 5.0 13.0 0.00 0.00 0.00 66 1014.5
20260505235004 66 242 6.0 10.0 0.00 0.00 0.00 64 1014.4
20260505234004 67 254 6.0 12.0 0.00 0.00 0.00 62 1014.3
20260505233004 68 269 5.0 13.0 0.00 0.00 0.00 58 1014.3
20260505231025 70 257 7.0 14.0 0.00 0.00 0.00 57 1014.2
20260505230004 70 259 6.0 14.0 0.00 0.00 0.00 57 1014.1
20260505225004 68 262 5.0 12.0 0.00 0.00 0.00 60 1014.3
20260505224025 68 269 5.0 12.0 0.00 0.00 0.00 60 1014.4
20260505223025 68 251 5.0 14.0 0.00 0.00 0.00 57 1014.5
20260505222025 68 267 5.0 12.0 0.00 0.00 0.00 56 1014.4
20260505221025 68 268 6.0 13.0 0.00 0.00 0.00 55 1014.5
20260505220004 68 257 5.0 13.0 0.00 0.00 0.00 53 1014.5
20260505215004 68 290 6.0 14.0 0.00 0.00 0.00 55 1014.7
20260505214004 68 255 6.0 19.0 0.00 0.00 0.00 56 1014.8
20260505213004 68 255 7.0 18.0 0.00 0.00 0.00 57 1015.0
20260505210004 70 266 5.0 10.0 0.00 0.00 0.00 54 1014.9
20260505205004 69 277 6.0 13.0 0.00 0.00 0.00 53 1015.0
20260505204025 70 276 6.0 16.0 0.00 0.00 0.00 51 1015.0
20260505203004 71 235 6.0 13.0 0.00 0.00 0.00 48 1014.9
20260505202004 70 245 6.0 14.0 0.00 0.00 0.00 50 1014.9
20260505201004 70 244 4.0 14.0 0.00 0.00 0.00 51 1015.0
20260505200004 69 212 4.0 11.0 0.00 0.00 0.00 52 1015.0
20260505195004 69 260 5.0 12.0 0.00 0.00 0.00 54 1015.1
20260505194004 68 248 5.0 12.0 0.00 0.00 0.00 55 1015.3
20260505193025 68 241 5.0 14.0 0.00 0.00 0.00 54 1015.4
20260505192025 68 243 5.0 11.0 0.00 0.00 0.00 54 1015.4
20260505191004 70 240 6.0 14.0 0.00 0.00 0.00 55 1015.3
20260505190004 70 250 5.0 11.0 0.00 0.00 0.00 54 1015.3
20260505185004 70 254 4.0 10.0 0.00 0.00 0.00 52 1015.1
20260505184004 70 237 4.0 12.0 0.00 0.00 0.00 53 1015.1
20260505183004 70 240 4.0 9.0 0.00 0.00 0.00 51 1015.1
20260505182004 69 257 4.0 10.0 0.00 0.00 0.00 54 1015.0
20260505181004 69 234 3.0 11.0 0.00 0.00 0.00 54 1015.1
20260505180004 69 241 3.0 8.0 0.00 0.00 0.00 56 1014.9
20260505175004 68 190 4.0 8.0 0.00 0.00 0.00 58 1015.0
20260505173004 68 225 3.0 9.0 0.00 0.00 0.00 55 1015.0
20260505172004 67 215 3.0 8.0 0.00 0.00 0.00 59 1014.8
20260505171003 67 239 3.0 5.0 0.00 0.00 0.00 59 1014.7
20260505170004 66 230 3.0 8.0 0.00 0.00 0.00 58 1014.7
20260505165004 66 193 2.0 5.0 0.00 0.00 0.00 59 1014.7
20260505164004 66 208 2.0 7.0 0.00 0.00 0.00 62 1014.6
20260505163025 64 246 2.0 6.0 0.00 0.00 0.00 65 1014.6
20260505162004 63 237 2.0 6.0 0.00 0.00 0.00 68 1014.5
20260505161025 63 243 2.0 4.0 0.00 0.00 0.00 71 1014.5
20260505153025 59 167 2.0 6.0 0.00 0.00 0.00 81 1014.3
20260505152004 58 147 1.0 3.0 0.00 0.00 0.00 86 1014.2
20260505151003 56 0 2.0 2.0 0.00 0.00 0.00 87 1014.3
20260505125004 52 0 0.0 0.0 0.00 0.00 0.00 86 1013.9
20260505124003 52 0 0.0 0.0 0.00 0.00 0.00 85 1013.9
20260505123003 52 0 0.0 0.0 0.00 0.00 0.00 85 1014.0
20260505122003 52 0 0.0 0.0 0.00 0.00 0.00 85 1014.0
20260505121003 52 231 1.0 3.0 0.00 0.00 0.00 85 1013.9
20260505120004 53 0 0.0 2.0 0.00 0.00 0.00 84 1014.0
20260505115004 53 0 0.0 2.0 0.00 0.00 0.00 84 1014.0
20260505114003 53 0 0.0 2.0 0.00 0.00 0.00 83 1014.1
20260505113003 54 0 0.0 0.0 0.00 0.00 0.00 83 1014.0
20260505112024 54 0 0.0 0.0 0.00 0.00 0.00 82 1014.0
20260505111003 54 0 0.0 0.0 0.00 0.00 0.00 81 1014.1
20260505102003 56 0 0.0 2.0 0.00 0.00 0.00 82 1014.0
20260505101003 56 231 0.0 2.0 0.00 0.00 0.00 81 1014.1
20260505100004 57 231 1.0 3.0 0.00 0.00 0.00 81 1014.2
20260505095003 57 231 0.0 3.0 0.00 0.00 0.00 81 1014.2
20260505094025 57 231 1.0 2.0 0.00 0.00 0.00 81 1014.1
20260505093003 57 231 0.0 3.0 0.00 0.00 0.00 81 1014.3
20260505092003 57 0 0.0 4.0 0.00 0.00 0.00 80 1014.5
20260505091003 57 0 0.0 0.0 0.00 0.00 0.00 80 1014.6